Regional Weather Roundup
Issued by NWS

Home | Current Version | Previous Version | Text Only | Print | Product List | Glossary Off
Versions: 1 2 3 4 5 6 7 8 9 10 11 12 13 14 15 16 17 18 19 20 21 22 23 24 25 26 27 28 29 30 31 32 33 34 35 36 37 38 39 40 41 42 43 44 45 46 47 48 49 50

000
ASUS43 KLSX 231307
RWRMO

WEATHER SUMMARY FOR MISSOURI
NATIONAL WEATHER SERVICE SPRINGFIELD MO
700 AM CST FRI FEB 23 2018

NOTE: "FAIR" INDICATES FEW OR NO CLOUDS BELOW 12,000 FEET WITH NO
       SIGNIFICANT WEATHER AND/OR OBSTRUCTIONS TO VISIBILITY.
       CURRENT SKY AND/OR WEATHER CONDITIONS ARE NOT AVAILABLE FOR
       CHILLICOTHE AND FARMINGTON.

MOZ001>031-035>038-043-044-053-054-231400-
...NORTHERN AND WESTERN MISSOURI...

CITY           SKY/WX    TMP DP  RH WIND       PRES   REMARKS
KANSAS CTY INT FRZ DRZL  32  31  96 W5        30.25R FOG     WCI  27
KANSAS C DTWN  CLOUDY    35  31  85 W5        30.25R
LEE`S SUMMIT   CLOUDY    33  33 100 W3        30.25R
ST JOSEPH      CLOUDY    33  30  88 NW10      30.25R WCI  25
CHILLICOTHE      N/A     34  31  88 VRB5      30.25R WCI  30
KIRKSVILLE     CLOUDY    33  33 100 W10       30.21R WCI  25

$$
MOZ066>068-077>081-088>096-101>105-231400-
...SOUTHWEST MISSOURI...

CITY           SKY/WX    TMP DP  RH WIND       PRES   REMARKS
SPRINGFIELD    CLOUDY    40  40 100 W5        30.25R
JOPLIN         CLOUDY    37  37 100 CALM      30.27R FOG
BRANSON        CLOUDY    41  41 100 CALM      30.29R FOG

$$
MOZ032>034-039>042-045>050-055>058-069>072-231400-
...CENTRAL MISSOURI...

CITY           SKY/WX    TMP DP  RH WIND       PRES   REMARKS
COLUMBIA       CLOUDY    39  37  92 W7        30.24R
JEFFERSON CITY CLOUDY    41  38  89 W8        30.26R
ROLLA          CLOUDY    42  42 100 W7        30.24R FOG
SEDALIA        CLOUDY    37  37 100 W10       30.26R WCI  30
WHITEMAN AFB   CLOUDY    35  33  92 W6        30.21R
WARRENSBURG    CLOUDY    34  32  93 W3        30.26R
OSAGE BEACH    CLOUDY    40  40 100 VRB3      30.26R

$$
MOZ051-052-059>065-231400-
...EAST CENTRAL MISSOURI...

CITY           SKY/WX    TMP DP  RH WIND       PRES   REMARKS
ST LOUIS INTL  CLOUDY    46  45  96 SW8       30.24R
SPIRIT OF STL  CLOUDY    46  44  93 W10       30.24R
ST CHARLES       N/A     45  43  93 W10       30.23R

$$
MOZ072>076-082>087-097>100-106>115-231400-
...SOUTH CENTRAL AND SOUTHEAST MISSOURI...

CITY           SKY/WX    TMP DP  RH WIND       PRES   REMARKS
CAPE GIRARDEAU CLOUDY    53  51  93 SW10      30.25R
FARMINGTON     CLOUDY    48  46  93 W7        30.24R
POPLAR BLUFF   MOCLDY    50  49  96 MISG      30.25R
WEST PLAINS    CLOUDY    44  43  96 W5        30.25R

$$



USA.gov is the U.S. government's official web portal to all federal, state and local government web resources and services.